• In Uzbekistan
  • List of Countries
  • For 7 days
  • Water Temperature
  • Satellite Maps
  • Weather Map
  • Weather Widgets
  • user-avatar
    Login

    Hourly Weather Aracaju

    Today, 23 August, Wednesday

    Time Temperature Precipitation Wind Pressure Humidity
    00:00 +23°C° 0.2 mm 5 mps 762 mmHg 88%
    01:00 +23°C° 0.2 mm 5 mps 762 mmHg 88%
    02:00 +23°C° 0.1 mm 4 mps 762 mmHg 89%
    03:00 +23°C° 0.1 mm 4 mps 761 mmHg 89%
    04:00 +23°C° 0 mm 4 mps 761 mmHg 89%
    05:00 +23°C° 0.2 mm 4 mps 761 mmHg 89%
    06:00 +23°C° 0.2 mm 4 mps 761 mmHg 89%
    07:00 +23°C° 0.2 mm 4 mps 761 mmHg 89%
    08:00 +25°C° 0.3 mm 5 mps 762 mmHg 86%
    09:00 +26°C° 0.3 mm 5 mps 762 mmHg 84%
    10:00 +27°C° 0.3 mm 6 mps 762 mmHg 81%
    11:00 +27°C° 0.4 mm 6 mps 762 mmHg 80%
    12:00 +27°C° 0.4 mm 6 mps 762 mmHg 79%
    13:00 +28°C° 0.4 mm 6 mps 762 mmHg 78%
    14:00 +27°C° 0.4 mm 6 mps 761 mmHg 79%
    15:00 +27°C° 0.4 mm 5 mps 761 mmHg 80%
    16:00 +27°C° 0.4 mm 5 mps 761 mmHg 81%
    17:00 +26°C° 0.3 mm 5 mps 761 mmHg 83%
    18:00 +25°C° 0.3 mm 5 mps 761 mmHg 86%
    19:00 +25°C° 0.3 mm 5 mps 761 mmHg 88%
    20:00 +25°C° 0.4 mm 5 mps 761 mmHg 88%
    21:00 +25°C° 0.4 mm 5 mps 762 mmHg 89%
    22:00 +25°C° 0.4 mm 5 mps 762 mmHg 89%
    23:00 +23°C° 0.4 mm 5 mps 762 mmHg 89%

    Tomorrow, 24 August, Thursday

    Time Temperature Precipitation Wind Pressure Humidity
    00:00 +23°C° 0.4 mm 5 mps 762 mmHg 90%
    01:00 +23°C° 0.4 mm 5 mps 762 mmHg 90%
    02:00 +23°C° 0.6 mm 5 mps 761 mmHg 90%
    03:00 +23°C° 0.6 mm 5 mps 761 mmHg 90%
    04:00 +23°C° 0.6 mm 5 mps 760 mmHg 90%
    05:00 +23°C° 0.5 mm 5 mps 761 mmHg 90%
    06:00 +23°C° 0.5 mm 5 mps 761 mmHg 90%
    07:00 +23°C° 0.5 mm 5 mps 761 mmHg 90%
    08:00 +25°C° 0.5 mm 5 mps 762 mmHg 88%
    09:00 +24°C° 0.5 mm 6 mps 762 mmHg 86%
    10:00 +26°C° 0.5 mm 6 mps 763 mmHg 84%
    11:00 +26°C° 0.4 mm 6 mps 763 mmHg 83%
    12:00 +27°C° 0.4 mm 6 mps 763 mmHg 81%
    13:00 +27°C° 0.4 mm 6 mps 762 mmHg 80%
    14:00 +26°C° 0.4 mm 6 mps 762 mmHg 82%
    15:00 +26°C° 0.4 mm 5 mps 761 mmHg 84%
    16:00 +25°C° 0.4 mm 5 mps 761 mmHg 86%
    17:00 +25°C° 0.4 mm 5 mps 761 mmHg 87%
    18:00 +25°C° 0.4 mm 5 mps 761 mmHg 88%
    19:00 +23°C° 0.4 mm 5 mps 761 mmHg 88%
    20:00 +23°C° 0.5 mm 5 mps 762 mmHg 89%
    21:00 +23°C° 0.5 mm 5 mps 762 mmHg 89%
    22:00 +23°C° 0.5 mm 5 mps 763 mmHg 90%
    23:00 +23°C° 0.5 mm 5 mps 763 mmHg 90%

    Day after tomorrow, 25 August, Friday

    Time Temperature Precipitation Wind Pressure Humidity
    00:00 +23°C° 0.5 mm 5 mps 762 mmHg 90%
    01:00 +23°C° 0.5 mm 5 mps 762 mmHg 90%
    02:00 +23°C° 0.5 mm 5 mps 762 mmHg 90%
    03:00 +23°C° 0.5 mm 5 mps 761 mmHg 90%
    04:00 +23°C° 0.5 mm 4 mps 761 mmHg 90%
    05:00 +23°C° 0.4 mm 5 mps 761 mmHg 89%
    06:00 +23°C° 0.4 mm 5 mps 761 mmHg 89%
    07:00 +23°C° 0.4 mm 5 mps 762 mmHg 89%
    08:00 +23°C° 0.5 mm 5 mps 762 mmHg 88%
    09:00 +25°C° 0.5 mm 5 mps 763 mmHg 86%
    10:00 +25°C° 0.5 mm 5 mps 763 mmHg 85%
    11:00 +25°C° 0.3 mm 5 mps 763 mmHg 82%
    12:00 +26°C° 0.3 mm 5 mps 763 mmHg 79%
    13:00 +27°C° 0.3 mm 5 mps 762 mmHg 77%
    14:00 +26°C° 0.1 mm 5 mps 762 mmHg 76%
    15:00 +26°C° 0.1 mm 5 mps 761 mmHg 75%
    16:00 +26°C° 0.1 mm 5 mps 761 mmHg 75%
    17:00 +25°C° 0 mm 5 mps 761 mmHg 77%
    18:00 +25°C° 0 mm 5 mps 761 mmHg 78%
    19:00 +23°C° 0 mm 4 mps 762 mmHg 80%
    20:00 +23°C° 0 mm 4 mps 762 mmHg 81%
    21:00 +23°C° 0 mm 4 mps 763 mmHg 83%
    22:00 +22°C° 0 mm 4 mps 763 mmHg 84%
    23:00 +22°C° 0 mm 4 mps 763 mmHg 84%

    26 August, Saturday

    Time Temperature Precipitation Wind Pressure Humidity
    00:00 +22°C° 0 mm 4 mps 763 mmHg 85%
    01:00 +22°C° 0 mm 4 mps 762 mmHg 85%
    02:00 +22°C° 0 mm 3 mps 762 mmHg 85%
    03:00 +22°C° 0 mm 3 mps 761 mmHg 85%
    04:00 +22°C° 0 mm 3 mps 761 mmHg 85%
    05:00 +21°C° 0 mm 3 mps 761 mmHg 85%
    06:00 +21°C° 0 mm 3 mps 762 mmHg 85%
    07:00 +21°C° 0 mm 3 mps 762 mmHg 85%
    08:00 +24°C° 0 mm 3 mps 762 mmHg 79%
    09:00 +25°C° 0 mm 4 mps 763 mmHg 74%
    10:00 +27°C° 0 mm 4 mps 763 mmHg 69%
    11:00 +27°C° 0 mm 4 mps 763 mmHg 67%
    12:00 +28°C° 0 mm 4 mps 762 mmHg 65%
    13:00 +28°C° 0 mm 4 mps 762 mmHg 63%
    14:00 +28°C° 0 mm 5 mps 761 mmHg 65%
    15:00 +28°C° 0 mm 5 mps 761 mmHg 67%
    16:00 +28°C° 0 mm 5 mps 760 mmHg 69%
    17:00 +27°C° 0 mm 5 mps 761 mmHg 75%
    18:00 +25°C° 0 mm 4 mps 761 mmHg 80%
    19:00 +23°C° 0 mm 4 mps 761 mmHg 85%
    20:00 +23°C° 0.1 mm 4 mps 762 mmHg 86%
    21:00 +23°C° 0.1 mm 4 mps 762 mmHg 86%
    22:00 +23°C° 0.1 mm 4 mps 762 mmHg 87%
    23:00 +23°C° 0.1 mm 4 mps 762 mmHg 87%

    27 August, Sunday

    Time Temperature Precipitation Wind Pressure Humidity
    00:00 +23°C° 0.1 mm 4 mps 762 mmHg 88%
    01:00 +22°C° 0.1 mm 4 mps 761 mmHg 88%
    02:00 +22°C° 0.2 mm 4 mps 761 mmHg 88%
    03:00 +22°C° 0.2 mm 4 mps 761 mmHg 89%
    04:00 +22°C° 0.2 mm 4 mps 760 mmHg 89%
    05:00 +22°C° 0.2 mm 4 mps 761 mmHg 89%
    06:00 +22°C° 0.2 mm 4 mps 761 mmHg 89%
    07:00 +23°C° 0.2 mm 4 mps 762 mmHg 89%
    08:00 +23°C° 0.3 mm 4 mps 762 mmHg 88%
    09:00 +25°C° 0.3 mm 4 mps 762 mmHg 86%
    10:00 +25°C° 0.3 mm 4 mps 763 mmHg 85%
    11:00 +25°C° 0.4 mm 4 mps 762 mmHg 84%
    12:00 +26°C° 0.4 mm 5 mps 762 mmHg 83%
    13:00 +26°C° 0.4 mm 5 mps 761 mmHg 82%
    14:00 +26°C° 0.4 mm 5 mps 761 mmHg 83%
    15:00 +25°C° 0.4 mm 5 mps 761 mmHg 83%
    16:00 +25°C° 0.4 mm 5 mps 760 mmHg 84%
    17:00 +25°C° 0.3 mm 5 mps 761 mmHg 86%
    18:00 +23°C° 0.3 mm 5 mps 761 mmHg 87%
    19:00 +23°C° 0.3 mm 5 mps 761 mmHg 89%
    20:00 +23°C° 0.2 mm 5 mps 761 mmHg 89%
    21:00 +23°C° 0.2 mm 4 mps 762 mmHg 90%
    22:00 +23°C° 0.2 mm 4 mps 762 mmHg 90%
    23:00 +23°C° 0.2 mm 4 mps 762 mmHg 90%

    28 August, Monday

    Time Temperature Precipitation Wind Pressure Humidity
    00:00 +23°C° 0.2 mm 4 mps 761 mmHg 90%
    01:00 +22°C° 0.2 mm 4 mps 761 mmHg 90%
    02:00 +22°C° 0.4 mm 4 mps 761 mmHg 91%
    03:00 +22°C° 0.4 mm 4 mps 760 mmHg 91%
    04:00 +22°C° 0.4 mm 4 mps 760 mmHg 91%
    05:00 +23°C° 0.4 mm 4 mps 761 mmHg 91%
    06:00 +23°C° 0.4 mm 4 mps 761 mmHg 91%
    07:00 +23°C° 0.4 mm 4 mps 761 mmHg 91%
    08:00 +23°C° 0.5 mm 4 mps 762 mmHg 88%
    09:00 +25°C° 0.5 mm 4 mps 762 mmHg 86%
    10:00 +26°C° 0.5 mm 4 mps 762 mmHg 83%
    11:00 +26°C° 0.5 mm 4 mps 762 mmHg 81%
    12:00 +27°C° 0.5 mm 4 mps 762 mmHg 79%
    13:00 +27°C° 0.5 mm 4 mps 761 mmHg 78%
    14:00 +27°C° 0.3 mm 4 mps 761 mmHg 77%
    15:00 +27°C° 0.3 mm 4 mps 761 mmHg 77%
    16:00 +27°C° 0.3 mm 4 mps 760 mmHg 76%
    17:00 +26°C° 0.1 mm 4 mps 761 mmHg 80%
    18:00 +25°C° 0.1 mm 4 mps 761 mmHg 83%
    19:00 +25°C° 0.1 mm 4 mps 761 mmHg 87%
    20:00 +24°C° 0.1 mm 3 mps 761 mmHg 87%
    21:00 +24°C° 0.1 mm 3 mps 762 mmHg 88%
    22:00 +24°C° 0.1 mm 3 mps 762 mmHg 88%
    23:00 +24°C° 0.1 mm 3 mps 762 mmHg 89%
    Show more